{"data":{"norad_id":56394,"intl_designator":"2023-061W","name":"STARLINK-6305","alt_names":[],"object_type":"PAYLOAD","status":"ACTIVE","operator":null,"country":"US","launch_date":"2023-05-04","launch_site_code":"AFETR","launch_vehicle":null,"mission":null,"orbit_class":"UNKNOWN","rcs_meters":null,"size_class":null,"mass_kg":null,"dimensions":null,"purposes":["comms"],"wikipedia_slug":null,"has_3d_model":false,"image_url":null,"decayed_at":null,"tle_current":{"epoch":"2026-09-20T10:39:40.321152Z","epoch_age_seconds":116831,"freshness":"FRESH","line1":"1 56394U 23061W   26263.44421668 -.00000125  00000+0  49604-5 0  9999","line2":"2 56394  43.0030 166.8402 0000970 266.0827  93.9914 15.27574666186664","mean_motion":15.27574666,"eccentricity":9.7e-5,"inclination_deg":43.003,"raan_deg":166.8402,"arg_perigee_deg":266.0827,"mean_anomaly_deg":93.9914,"bstar":4.9604e-6,"rev_number":18666,"period_min":94.267077875197,"perigee_km":482.39953140043,"apogee_km":483.73060460162,"semimajor_km":6861.202068001,"source":"CELESTRAK","updated_at":"2026-09-21T09:00:33.434026Z"}}}